Weather History for KEET - June, 2013

Change the Weather History Date:

Sunday, June 2, 2013

  Actual Average Record
Temperature  
Mean Temperature 78 °F 75 °F  
Max Temperature 85 °F 85 °F 99 °F (2011)
Min Temperature 71 °F 65 °F 40 °F (1972)
Cooling Degree Days 13 10  
Month to date cooling degree days 25 20  
Year to date cooling degree days 277 289  
Since 1 June cooling degree days 25 20  
Growing Degree Days 26 (Base 50)    
Moisture  
Dew Point 68 °F    
Average Humidity 78    
Maximum Humidity 100    
Minimum Humidity 55    
Precipitation  
Precipitation 0.00 in 0.17 in 0.88 in (1960)
Month to date precipitation T 0.34  
Year to date precipitation 29.00 24.27  
Sea Level Pressure  
Sea Level Pressure 29.93 in    
Wind  
Wind Speed 3 mph (WSW)    
Max Wind Speed 10 mph    
Max Gust Speed 15 mph    
Visibility 10 miles    
Events      
T = Trace of Precipitation, MM = Missing Value Source: NWS Daily Summary

Daily Weather History Graph

Daily Weather History Graph

Search for Another Location

Airport or City:

Trip Planner

Search our weather history database for the weather conditions in past years. The results will help you decide how hot, cold, wet, or windy it might be!

Date:

Astronomy

Jun. 02, 2013 Rise Set
Actual Time 5:38 AM CDT 7:51 PM CDT
Civil Twilight 5:10 AM CDT 8:20 PM CDT
Nautical Twilight 4:35 AM CDT 8:55 PM CDT
Astronomical Twilight 3:58 AM CDT 9:32 PM CDT
Moon 1:49 AM CDT (6/2) 2:36 PM CDT (6/2)
Length of Visible Light 15h 10m
Length of Day
14h 13m
Waning Crescent, 30% of the Moon is Illuminated
Jun 2
Waning Crescent
Jun 8
New
Jun 16
First Quarter
Jun 23
Full
Jun 29
Last Quarter

Hourly Weather History & Observations

Time (CDT) Temp. Heat Index Dew Point Humidity Pressure Visibility Wind Dir Wind Speed Gust Speed Precip Events Conditions
12:53 AM 72.0 °F - 70.0 °F 93% 29.98 in 10.0 mi Calm Calm - N/A   Partly Cloudy
1:53 AM 73.0 °F - 71.1 °F 93% 29.96 in 10.0 mi SSE 3.5 mph - N/A   Scattered Clouds
2:53 AM 73.0 °F - 71.1 °F 93% 29.97 in 10.0 mi SSW 3.5 mph - N/A   Partly Cloudy
3:40 AM 71.6 °F - 71.6 °F 100% 29.98 in 9.0 mi SW 4.6 mph - N/A   Partly Cloudy
3:53 AM 72.0 °F - 71.1 °F 97% 29.95 in 8.0 mi Variable 3.5 mph - N/A   Mostly Cloudy
4:12 AM 71.6 °F - 71.6 °F 100% 29.96 in 8.0 mi Calm Calm - N/A   Mostly Cloudy
4:53 AM 72.0 °F - 71.1 °F 97% 29.96 in 7.0 mi SW 5.8 mph - N/A   Overcast
5:53 AM 73.0 °F - 69.1 °F 87% 29.97 in 9.0 mi Variable 4.6 mph - N/A   Overcast
6:53 AM 71.1 °F - 66.0 °F 84% 29.94 in 10.0 mi South 4.6 mph - N/A   Clear
7:53 AM 72.0 °F - 66.0 °F 81% 29.90 in 10.0 mi SSE 6.9 mph - N/A   Clear
8:53 AM 73.9 °F - 66.0 °F 76% 29.93 in 10.0 mi NW 5.8 mph - N/A   Clear
9:53 AM 77.0 °F - 66.0 °F 69% 29.94 in 10.0 mi North 6.9 mph - N/A   Clear
10:53 AM 79.0 °F - 64.9 °F 62% 29.96 in 10.0 mi Calm Calm - N/A   Clear
11:53 AM 79.0 °F - 64.0 °F 60% 29.95 in 10.0 mi Calm Calm - N/A   Partly Cloudy
12:53 PM 80.1 °F 81.7 °F 64.0 °F 58% 29.94 in 10.0 mi WSW 3.5 mph - N/A   Partly Cloudy
1:53 PM 82.0 °F 83.8 °F 64.9 °F 56% 29.93 in 10.0 mi Calm Calm - N/A   Clear
2:53 PM 82.9 °F 85.0 °F 66.0 °F 56% 29.91 in 10.0 mi NW 8.1 mph - N/A   Scattered Clouds
3:53 PM 82.0 °F 83.8 °F 64.9 °F 56% 29.91 in 10.0 mi NW 6.9 mph - N/A   Mostly Cloudy
4:53 PM 82.9 °F 85.0 °F 66.0 °F 56% 29.90 in 10.0 mi Variable 4.6 mph - N/A   Mostly Cloudy
5:53 PM 82.9 °F 84.6 °F 64.9 °F 54% 29.88 in 10.0 mi NW 5.8 mph - N/A   Clear
6:53 PM 81.0 °F 83.0 °F 66.0 °F 60% 29.88 in 10.0 mi WNW 3.5 mph - N/A   Clear
7:53 PM 75.9 °F - 68.0 °F 76% 29.90 in 10.0 mi Calm Calm - N/A   Clear
8:53 PM 75.9 °F - 68.0 °F 76% 29.90 in 10.0 mi Calm Calm - N/A   Partly Cloudy
9:53 PM 75.0 °F - 69.1 °F 82% 29.92 in 10.0 mi Calm Calm - N/A   Clear
10:53 PM 73.0 °F - 69.1 °F 87% 29.92 in 10.0 mi Calm Calm - N/A   Clear
11:53 PM 73.0 °F - 68.0 °F 84% 29.91 in 10.0 mi Calm Calm - N/A   Clear